Date String (YYYY-MM-DD hh:mm:ss) UTC,Instrument flags,Ambient pressure (hPa),Sample flow (lpm),Bypass flow (lpm),Sample temperature (°C),Ambient temperature (°C),ASC tube jacket temperature (°C),LED temperature (°C),Box temperature (°C),Sample RH (%),Span deviation,Mass concentration (μg/m³),Mass concentration (μg/m³),Mass concentration (μg/m³)
DateTimeUTC,F1_M11,P_M11,Q1_M11,Q2_M11,T1_M11,T2_M11,T3_M11,T4_M11,T5_M11,U1_M11,ZSPAN_M11,X2_M11,X0_M11,X1_M11
2023-04-08 23:00:00,,0829.0,5.00,0.00,26.2,25.0,00.0,34.5,27.9,10.2,0000.0,0003.61,0011.28,0002.00
2023-04-08 23:01:00,,0828.9,5.00,0.00,26.3,25.0,00.0,34.5,27.9,10.3,0000.0,0003.60,0011.28,0001.98
2023-04-08 23:02:00,,0829.0,4.99,0.00,26.3,25.0,00.0,34.5,27.9,10.3,0000.0,0003.62,0011.34,0001.97
2023-04-08 23:03:00,,0829.1,5.00,0.00,26.3,25.0,00.0,34.5,27.9,10.2,0000.0,0003.63,0011.74,0001.96
2023-04-08 23:04:00,,0829.1,5.00,0.00,26.3,25.0,00.0,34.5,27.9,10.2,0000.0,0003.60,0011.81,0001.93
2023-04-08 23:05:00,,0829.1,4.99,0.00,26.3,25.0,00.0,34.5,27.9,10.2,0000.0,0003.61,0011.35,0001.89
2023-04-08 23:06:00,,0829.1,5.00,0.00,26.3,25.0,00.0,34.5,27.9,10.1,0000.0,0003.58,0011.18,0001.87
2023-04-08 23:07:00,,0829.1,5.01,0.00,26.3,25.0,00.0,34.5,27.9,10.0,0000.0,0003.53,0010.50,0001.84
2023-04-08 23:08:00,,0829.1,5.01,0.00,26.3,25.0,00.0,34.6,28.0,10.3,0000.0,0003.50,0009.59,0001.84
2023-04-08 23:09:00,,0829.1,5.01,0.00,26.4,25.0,00.0,34.6,27.9,10.3,0000.0,0003.46,0009.63,0001.81
2023-04-08 23:10:00,,0829.1,5.00,0.00,26.4,25.0,00.0,34.6,27.9,10.8,0000.0,0003.47,0009.39,0001.80
2023-04-08 23:11:00,,0829.1,4.99,0.00,26.4,25.0,00.0,34.6,28.0,10.9,0000.0,0003.48,0009.96,0001.80
2023-04-08 23:12:00,,0829.1,5.00,0.00,26.4,25.0,00.0,34.6,28.0,11.1,0000.0,0003.45,0010.20,0001.79
2023-04-08 23:13:00,,0829.1,5.00,0.00,26.4,25.0,00.0,34.6,28.0,11.1,0000.0,0003.40,0009.98,0001.77
2023-04-08 23:14:00,,0829.1,4.99,0.00,26.4,25.0,00.0,34.6,28.0,11.1,0000.0,0003.33,0009.38,0001.75
2023-04-08 23:15:00,,0829.1,5.00,0.00,26.4,25.0,00.0,34.6,28.0,11.1,0000.0,0003.32,0009.25,0001.75
2023-04-08 23:16:00,,0829.1,5.01,0.00,26.4,25.0,00.0,34.6,28.0,11.1,0000.0,0003.29,0009.10,0001.75
2023-04-08 23:17:00,,0829.2,5.00,0.00,26.4,25.0,00.0,34.6,28.0,11.1,0000.0,0003.29,0009.12,0001.73
2023-04-08 23:18:00,,0829.1,4.99,0.00,26.4,25.0,00.0,34.7,28.0,11.2,0000.0,0003.31,0009.41,0001.73
2023-04-08 23:19:00,,0829.2,4.99,0.00,26.4,25.0,00.0,34.7,28.0,11.0,0000.0,0003.33,0009.13,0001.71
2023-04-08 23:20:00,,0829.2,5.00,0.00,26.4,25.0,00.0,34.7,28.0,11.0,0000.0,0003.33,0008.75,0001.71
2023-04-08 23:21:00,,0829.1,5.00,0.00,26.4,25.0,00.0,34.7,28.0,10.8,0000.0,0003.27,0008.73,0001.71
2023-04-08 23:22:00,,0829.2,5.01,0.00,26.4,25.0,00.0,34.7,28.0,10.8,0000.0,0003.25,0008.17,0001.71
2023-04-08 23:23:00,,0829.2,5.00,0.00,26.4,25.0,00.0,34.7,28.0,10.9,0000.0,0003.24,0008.26,0001.70
2023-04-08 23:24:00,,0829.2,4.99,0.00,26.4,25.0,00.0,34.7,28.0,10.9,0000.0,0003.30,0008.94,0001.71
2023-04-08 23:25:00,,0829.2,4.99,0.00,26.4,25.0,00.0,34.7,28.0,10.9,0000.0,0003.37,0009.19,0001.70
2023-04-08 23:26:00,,0829.2,5.00,0.00,26.4,25.0,00.0,34.7,28.0,11.0,0000.0,0003.41,0009.19,0001.71
2023-04-08 23:27:00,,0829.3,5.01,0.00,26.4,25.0,00.0,34.7,28.0,10.9,0000.0,0003.46,0009.39,0001.71
2023-04-08 23:28:00,,0829.3,5.01,0.00,26.4,25.0,00.0,34.7,28.0,11.0,0000.0,0003.47,0009.40,0001.71
2023-04-08 23:29:00,,0829.3,4.99,0.00,26.4,25.0,00.0,34.7,28.1,11.1,0000.0,0003.52,0009.29,0001.71
2023-04-08 23:30:00,,0829.3,4.99,0.00,26.4,24.9,00.0,34.7,28.0,11.1,0000.0,0003.58,0009.46,0001.72
2023-04-08 23:31:00,,0829.4,4.99,0.00,26.4,25.0,00.0,34.7,28.0,11.0,0000.0,0003.61,0010.00,0001.72
2023-04-08 23:32:00,,0829.3,5.01,0.00,26.5,25.0,00.0,34.7,28.0,11.0,0000.0,0003.62,0010.07,0001.74
2023-04-08 23:33:00,,0829.4,5.01,0.00,26.4,25.0,00.0,34.7,28.0,11.1,0000.0,0003.60,0009.83,0001.74
2023-04-08 23:34:00,,0829.3,5.01,0.00,26.5,25.0,00.0,34.7,28.0,11.1,0000.0,0003.61,0010.31,0001.75
2023-04-08 23:35:00,,0829.3,5.00,0.00,26.5,25.0,00.0,34.7,28.1,11.1,0000.0,0003.56,0009.82,0001.74
2023-04-08 23:36:00,,0829.3,4.99,0.00,26.5,25.0,00.0,34.7,28.1,11.0,0000.0,0003.53,0009.88,0001.76
2023-04-08 23:37:00,,0829.4,4.99,0.00,26.5,25.0,00.0,34.7,28.1,11.1,0000.0,0003.52,0009.93,0001.77
2023-04-08 23:38:00,,0829.4,5.00,0.00,26.5,25.0,00.0,34.8,28.0,11.1,0000.0,0003.46,0009.80,0001.77
2023-04-08 23:39:00,,0829.4,5.01,0.00,26.5,25.0,00.0,34.8,28.1,11.2,0000.0,0003.45,0009.89,0001.76
2023-04-08 23:40:00,,0829.4,5.00,0.00,26.5,25.0,00.0,34.8,28.1,11.3,0000.0,0003.42,0010.29,0001.77
2023-04-08 23:41:00,,0829.4,5.00,0.00,26.5,25.0,00.0,34.8,28.1,11.3,0000.0,0003.36,0010.65,0001.76
2023-04-08 23:42:00,,0829.4,5.00,0.00,26.5,25.0,00.0,34.8,28.1,11.1,0000.0,0003.32,0010.92,0001.75
2023-04-08 23:43:00,,0829.4,5.00,0.00,26.5,25.0,00.0,34.8,28.1,11.3,0000.0,0003.31,0010.88,0001.73
2023-04-08 23:44:00,,0829.5,5.00,0.00,26.5,25.0,00.0,34.8,28.1,11.4,0000.0,0003.33,0010.97,0001.72
2023-04-08 23:45:00,,0829.4,5.00,0.00,26.5,25.0,00.0,34.8,28.1,11.4,0000.0,0003.35,0011.22,0001.71
2023-04-08 23:46:00,,0829.4,5.00,0.00,26.5,25.0,00.0,34.8,28.1,11.6,0000.0,0003.37,0011.15,0001.71
2023-04-08 23:47:00,,0829.6,5.00,0.00,26.5,25.0,00.0,34.8,28.1,11.5,0000.0,0003.33,0010.88,0001.68
2023-04-08 23:48:00,,0829.5,4.99,0.00,26.5,25.0,00.0,34.8,28.1,11.7,0000.0,0003.27,0010.67,0001.66
2023-04-08 23:49:00,,0829.5,5.00,0.00,26.5,25.1,00.0,34.8,28.1,11.6,0000.0,0003.21,0010.52,0001.64
2023-04-08 23:50:00,,0829.6,5.01,0.00,26.5,25.0,00.0,34.8,28.1,11.6,0000.0,0003.17,0010.55,0001.63
2023-04-08 23:51:00,,0829.5,5.01,0.00,26.5,25.0,00.0,34.8,28.1,11.8,0000.0,0003.16,0010.22,0001.61
2023-04-08 23:52:00,,0829.6,4.99,0.00,26.5,25.0,00.0,34.8,28.1,11.7,0000.0,0003.15,0009.58,0001.61
2023-04-08 23:53:00,,0829.5,5.00,0.00,26.5,25.0,00.0,34.8,28.1,11.7,0000.0,0003.17,0008.80,0001.62
2023-04-08 23:54:00,,0829.6,5.00,0.00,26.5,25.0,00.0,34.8,28.1,11.6,0000.0,0003.17,0008.67,0001.62
2023-04-08 23:55:00,,0829.6,4.99,0.00,26.5,25.0,00.0,34.8,28.1,11.7,0000.0,0003.16,0008.52,0001.62
2023-04-08 23:56:00,,0829.6,5.00,0.00,26.5,25.0,00.0,34.8,28.1,11.8,0000.0,0003.13,0007.41,0001.62
2023-04-08 23:57:00,,0829.7,5.01,0.00,26.5,25.0,00.0,34.8,28.1,11.7,0000.0,0003.12,0007.41,0001.63
2023-04-08 23:58:00,,0829.6,5.00,0.00,26.5,25.0,00.0,34.8,28.1,12.0,0000.0,0003.12,0007.65,0001.64
2023-04-08 23:59:00,,0829.7,5.00,0.00,26.5,25.0,00.0,34.8,28.1,11.7,0000.0,0003.17,0007.92,0001.67
